Flag for U.S.A. Weather past 2 weeks in Salt Lake City, Utah, U.S.A.

Now
33 °F

Passing clouds.


Feels Like: 27 °F
Forecast: 29 / 45 °F
Wind: 7 mph from Southeast

Location: Salt Lake City International Airport

Current Time: Dec 19, 2014 at 12:02:50 AM

Latest Report: Dec 18, 2014 at 10:53 PM


Visibility: 10 mi

Pressure: 30.19 "Hg

Humidity: 82%

Dew point: 28 °F

Location of Salt Lake CityLocation

Historic Weather in Salt Lake City — Graph

°F

Salt Lake City temperature yesterday

Maximum temperature yesterday: 45 °F (at 3:53 PM)
Minimum temperature yesterday: 31 °F (at 2:53 AM)
Average temperature yesterday: 36 °F

Past Weeks' High & Low Weather Summary

 TemperatureHumidityPressure
High63 °F (Dec 12, 12:53 PM)96% (Dec 18, 6:53 AM)30.38 "Hg (Dec 18, 6:53 AM)
Low24 °F (Dec 15, 5:53 AM)25% (Dec 12, 2:53 PM)29.72 "Hg (Dec 12, 2:53 PM)
Average41 °F71%30.09 "Hg
* Reported Dec 3 10:53 PM — Dec 18 10:53 PM, Salt Lake City, Weather by CustomWeather, © 2014

Note: Actual official high and low records may vary slightly from our data, if they occured in-between our weather recording intervals... More about our weather records

Advertising

Salt Lake City weather history for previous 24 hours

 ConditionsComfort  
Time TempWeatherWind HumidityBarometerVisibility
10:53 PM
Dec 18
33 °FPassing clouds.7 mph82%30.19 "Hg10 mi
9:53 PM34 °FPassing clouds.9 mph79%30.21 "Hg10 mi
8:53 PM34 °FPartly cloudy.7 mph82%30.20 "Hg10 mi
7:53 PM35 °FPassing clouds.5 mph82%30.20 "Hg9 mi
6:53 PM36 °FPartly cloudy.5 mph82%30.20 "Hg10 mi
5:53 PM37 °FPassing clouds.6 mph82%30.19 "Hg10 mi
4:53 PM41 °FScattered clouds.6 mph62%30.13 "Hg10 mi
3:53 PM45 °FBroken clouds.6 mph53%30.14 "Hg10 mi
2:53 PM44 °FScattered clouds.3 mph58%30.13 "Hg10 mi
1:53 PM43 °FScattered clouds.5 mph65%30.13 "Hg10 mi
12:53 PM42 °FPassing clouds.7 mph68%30.14 "Hg10 mi
11:53 AM40 °FScattered clouds.7 mph77%30.17 "Hg9 mi
10:53 AM39 °FScattered clouds.8 mph82%30.15 "Hg8 mi
9:53 AM36 °FBroken clouds.5 mph85%30.18 "Hg8 mi
8:53 AM35 °FBroken clouds.3 mph85%30.16 "Hg7 mi
7:53 AM33 °FMostly cloudy.5 mph88%30.15 "Hg7 mi
6:53 AM31 °FIce fog.3 mph96%30.14 "Hg6 mi
5:53 AM31 °FIce fog.6 mph89%30.11 "Hg6 mi
4:53 AM31 °FPassing clouds.No wind89%30.10 "Hg8 mi
3:53 AM32 °FPassing clouds.6 mph88%30.06 "Hg8 mi
2:53 AM31 °FIce fog.6 mph92%30.06 "Hg6 mi
1:53 AM32 °FIce fog.5 mph88%30.05 "Hg6 mi
12:53 AM34 °FPassing clouds.5 mph88%30.07 "Hg8 mi
Weather by CustomWeather, © 2014

See weather overviewHow to use our weather pages